DLH1AB EHAM-LDSP

Flight info

Callsign DLH1AB
Flight time 1h 48m
Altitude FL370
Route REND2V EDUPO Z739 MISGO ASBON TUSUK UTABA BEMKI ELMEM DIRAB VESAL PEVAL PUL LOS MINTU SAL SAL1Y
Aircraft A320/M-SDE3FGHILRWY/LB1

Departure

Time 2026-04-27 11:51
Airport Amsterdam Airport Schiphol (EHAM)

Arrival

Time 2026-04-27 13:39
Airport Split Saint Jerome Airport (LDSP)
Time Latitude Longitude Altitude Speed Heading
2026-04-27 11:21 52.30410 4.76360 -1 ft 0 kts 238°
2026-04-27 11:34 52.30417 4.76379 -1 ft 2 kts 238°
2026-04-27 11:34 52.30426 4.76403 -1 ft 2 kts 220°
2026-04-27 11:35 52.30441 4.76412 -1 ft 2 kts 164°
2026-04-27 11:35 52.30449 4.76408 -1 ft 0 kts 152°
2026-04-27 11:38 52.30440 4.76420 -1 ft 6 kts 142°
2026-04-27 11:38 52.30383 4.76487 -1 ft 12 kts 146°
2026-04-27 11:39 52.30301 4.76503 -1 ft 13 kts 223°
2026-04-27 11:39 52.30239 4.76363 -1 ft 15 kts 233°
2026-04-27 11:39 52.30185 4.76230 -1 ft 13 kts 237°
2026-04-27 11:39 52.30133 4.76094 -1 ft 18 kts 238°
2026-04-27 11:40 52.30064 4.75917 -1 ft 18 kts 237°
2026-04-27 11:40 52.29999 4.75750 -1 ft 19 kts 238°
2026-04-27 11:40 52.29928 4.75566 -1 ft 19 kts 237°
2026-04-27 11:40 52.29864 4.75394 -1 ft 17 kts 241°
2026-04-27 11:41 52.29851 4.75192 -1 ft 20 kts 294°
2026-04-27 11:41 52.29954 4.74983 -1 ft 27 kts 311°
2026-04-27 11:41 52.30089 4.74739 2 ft 29 kts 312°
2026-04-27 11:41 52.30216 4.74507 10 ft 28 kts 310°
2026-04-27 11:42 52.30351 4.74259 -1 ft 32 kts 318°
2026-04-27 11:42 52.30564 4.74205 -1 ft 32 kts
2026-04-27 11:42 52.30783 4.74225 -1 ft 32 kts
2026-04-27 11:42 52.31002 4.74248 -1 ft 32 kts
2026-04-27 11:43 52.31219 4.74270 -1 ft 31 kts
2026-04-27 11:43 52.31437 4.74285 -1 ft 31 kts
2026-04-27 11:43 52.31654 4.74309 -1 ft 31 kts
2026-04-27 11:43 52.31872 4.74328 -1 ft 31 kts
2026-04-27 11:44 52.32026 4.74198 -1 ft 28 kts 271°
2026-04-27 11:44 52.32040 4.73870 -1 ft 29 kts 274°
2026-04-27 11:44 52.32057 4.73533 -1 ft 30 kts 275°
2026-04-27 11:44 52.32162 4.73249 -1 ft 31 kts 320°
2026-04-27 11:45 52.32327 4.73023 -1 ft 31 kts 319°
2026-04-27 11:45 52.32438 4.72867 -1 ft 32 kts 319°
2026-04-27 11:45 52.32661 4.72547 -1 ft 32 kts 315°
2026-04-27 11:45 52.32815 4.72274 -1 ft 33 kts 312°
2026-04-27 11:46 52.32954 4.72018 -1 ft 26 kts 311°
2026-04-27 11:46 52.33075 4.71793 -1 ft 22 kts 313°
2026-04-27 11:46 52.33139 4.71639 -1 ft 15 kts 291°
2026-04-27 11:46 52.33145 4.71605 -1 ft 0 kts 283°
2026-04-27 11:47 52.33142 4.71549 -1 ft 11 kts 257°
2026-04-27 11:47 52.33152 4.71403 -1 ft 14 kts 297°
2026-04-27 11:48 52.33220 4.71259 -1 ft 16 kts 311°
2026-04-27 11:48 52.33290 4.71132 -1 ft 14 kts 312°
2026-04-27 11:48 52.33299 4.71115 -2 ft 0 kts 311°
2026-04-27 11:49 52.33308 4.71098 -2 ft 8 kts 311°
2026-04-27 11:49 52.33354 4.71000 -2 ft 11 kts 301°
2026-04-27 11:50 52.33409 4.70943 -2 ft 8 kts 354°
2026-04-27 11:50 52.33490 4.70947 -2 ft 28 kts
2026-04-27 11:50 52.33941 4.70999 -1 ft 98 kts
2026-04-27 11:50 52.34826 4.71086 1 ft 154 kts
2026-04-27 11:51 52.35949 4.71138 477 ft 160 kts
2026-04-27 11:51 52.37061 4.71232 1182 ft 160 kts
2026-04-27 11:51 52.39519 4.71494 2037 ft 199 kts
2026-04-27 11:52 52.40969 4.71647 2412 ft 221 kts
2026-04-27 11:52 52.42536 4.72202 2841 ft 243 kts 26°
2026-04-27 11:52 52.44050 4.73569 3555 ft 253 kts 29°
2026-04-27 11:52 52.45592 4.75010 4429 ft 257 kts 32°
2026-04-27 11:53 52.46953 4.76923 5309 ft 262 kts 49°
2026-04-27 11:53 52.47897 4.79498 6147 ft 268 kts 68°
2026-04-27 11:53 52.48301 4.82503 6970 ft 274 kts 84°
2026-04-27 11:53 52.48454 4.85639 7777 ft 278 kts 85°
2026-04-27 11:54 52.48309 4.88821 8552 ft 285 kts 103°
2026-04-27 11:54 52.47565 4.91838 9341 ft 290 kts 122°
2026-04-27 11:54 52.46270 4.94371 10129 ft 293 kts 140°
2026-04-27 11:54 52.44609 4.96352 10751 ft 303 kts 146°
2026-04-27 11:55 52.42818 4.98401 10984 ft 326 kts 146°
2026-04-27 11:55 52.40899 5.00606 11167 ft 349 kts 146°
2026-04-27 11:55 52.38864 5.02956 11459 ft 366 kts 146°
2026-04-27 11:55 52.36772 5.05378 12086 ft 371 kts 146°
2026-04-27 11:56 52.34669 5.07820 12790 ft 374 kts 145°
2026-04-27 11:56 52.32701 5.10620 13468 ft 379 kts 135°
2026-04-27 11:56 52.30939 5.13834 14127 ft 383 kts 133°
2026-04-27 11:56 52.29160 5.17096 14725 ft 387 kts 134°
2026-04-27 11:57 52.27359 5.20370 15289 ft 391 kts 134°
2026-04-27 11:57 52.25528 5.23682 15837 ft 395 kts 134°
2026-04-27 11:57 52.23772 5.27153 16389 ft 401 kts 127°
2026-04-27 11:57 52.22156 5.30882 16932 ft 406 kts 127°
2026-04-27 11:58 52.20522 5.34656 17483 ft 410 kts 127°
2026-04-27 11:58 52.18873 5.38461 18023 ft 415 kts 127°
2026-04-27 11:58 52.17200 5.42313 18566 ft 419 kts 127°
2026-04-27 11:58 52.15511 5.46191 19016 ft 424 kts 127°
2026-04-27 11:59 52.13791 5.50118 19437 ft 429 kts 127°
2026-04-27 11:59 52.12047 5.54085 19899 ft 433 kts 127°
2026-04-27 11:59 52.10295 5.58073 20365 ft 437 kts 127°
2026-04-27 11:59 52.08528 5.62099 20824 ft 440 kts 127°
2026-04-27 12:00 52.06751 5.66154 21255 ft 443 kts 128°
2026-04-27 12:00 52.04817 5.70056 21678 ft 445 kts 133°
2026-04-27 12:00 52.02788 5.73863 22119 ft 448 kts 134°
2026-04-27 12:00 52.00740 5.77674 22547 ft 451 kts 134°
2026-04-27 12:01 51.98675 5.81500 22957 ft 454 kts 134°
2026-04-27 12:01 51.96595 5.85360 23361 ft 456 kts 134°
2026-04-27 12:01 51.94507 5.89245 23730 ft 460 kts 134°
2026-04-27 12:01 51.92408 5.93161 24045 ft 463 kts 134°
2026-04-27 12:02 51.90300 5.97099 24357 ft 465 kts 134°
2026-04-27 12:02 51.88179 6.01061 24666 ft 468 kts 134°
2026-04-27 12:02 51.86046 6.05035 24991 ft 469 kts 134°
2026-04-27 12:02 51.83897 6.09016 25298 ft 471 kts 134°
2026-04-27 12:03 51.81738 6.12999 25598 ft 473 kts 134°
2026-04-27 12:03 51.79560 6.16990 25890 ft 475 kts 135°
2026-04-27 12:03 51.77368 6.20986 26178 ft 477 kts 135°
2026-04-27 12:03 51.75165 6.25002 26455 ft 479 kts 135°
2026-04-27 12:04 51.72956 6.29028 26728 ft 481 kts 135°
2026-04-27 12:04 51.70736 6.33069 26991 ft 483 kts 135°
2026-04-27 12:04 51.68505 6.37122 27243 ft 485 kts 135°
2026-04-27 12:04 51.66263 6.41184 27488 ft 487 kts 135°
2026-04-27 12:05 51.64010 6.45263 27737 ft 489 kts 135°
2026-04-27 12:05 51.61754 6.49345 27942 ft 490 kts 135°
2026-04-27 12:05 51.59490 6.53446 28168 ft 492 kts 135°
2026-04-27 12:05 51.57217 6.57560 28400 ft 493 kts 135°
2026-04-27 12:06 51.54942 6.61663 28727 ft 492 kts 135°
2026-04-27 12:06 51.52666 6.65754 29043 ft 492 kts 135°
2026-04-27 12:06 51.50391 6.69834 29360 ft 491 kts 135°
2026-04-27 12:06 51.48120 6.73906 29683 ft 491 kts 135°
2026-04-27 12:07 51.45852 6.77968 30010 ft 490 kts 135°
2026-04-27 12:07 51.43581 6.82029 30332 ft 489 kts 135°
2026-04-27 12:07 51.41259 6.85969 30601 ft 486 kts 141°
2026-04-27 12:07 51.38662 6.89368 30873 ft 480 kts 150°
2026-04-27 12:08 51.35869 6.92235 31125 ft 477 kts 152°
2026-04-27 12:08 51.33069 6.95047 31412 ft 476 kts 152°
2026-04-27 12:08 51.30272 6.97861 31710 ft 475 kts 152°
2026-04-27 12:08 51.27487 7.00664 32000 ft 474 kts 152°
2026-04-27 12:09 51.24702 7.03460 32285 ft 473 kts 152°
2026-04-27 12:09 51.21917 7.06246 32574 ft 473 kts 153°
2026-04-27 12:09 51.19139 7.09017 32862 ft 472 kts 153°
2026-04-27 12:09 51.16360 7.11784 33138 ft 471 kts 153°
2026-04-27 12:10 51.13593 7.14541 33394 ft 471 kts 153°
2026-04-27 12:10 51.10827 7.17297 33623 ft 470 kts 153°
2026-04-27 12:10 51.08061 7.20054 33899 ft 470 kts 153°
2026-04-27 12:10 51.05293 7.22811 34174 ft 469 kts 153°
2026-04-27 12:11 51.02531 7.25550 34423 ft 469 kts 153°
2026-04-27 12:11 50.99774 7.28278 34648 ft 468 kts 153°
2026-04-27 12:11 50.97012 7.31010 34880 ft 468 kts 153°
2026-04-27 12:11 50.94260 7.33734 35102 ft 468 kts 153°
2026-04-27 12:12 50.91501 7.36459 35322 ft 467 kts 153°
2026-04-27 12:12 50.88747 7.39171 35531 ft 467 kts 153°
2026-04-27 12:12 50.85993 7.41879 35727 ft 467 kts 153°
2026-04-27 12:12 50.83237 7.44584 35923 ft 467 kts 153°
2026-04-27 12:13 50.80479 7.47282 36111 ft 467 kts 153°
2026-04-27 12:13 50.77720 7.49974 36300 ft 467 kts 153°
2026-04-27 12:13 50.74968 7.52658 36480 ft 467 kts 153°
2026-04-27 12:13 50.72206 7.55353 36637 ft 467 kts 152°
2026-04-27 12:14 50.69463 7.58089 36796 ft 468 kts 151°
2026-04-27 12:14 50.66740 7.60892 36959 ft 469 kts 150°
2026-04-27 12:14 50.64028 7.63736 37138 ft 468 kts 150°
2026-04-27 12:15 50.58611 7.69451 37247 ft 471 kts 150°
2026-04-27 12:15 50.53153 7.75115 37246 ft 471 kts 151°
2026-04-27 12:16 50.47675 7.80731 37241 ft 471 kts 151°
2026-04-27 12:16 50.42189 7.86337 37240 ft 471 kts 151°
2026-04-27 12:17 50.36700 7.91941 37224 ft 472 kts 151°
2026-04-27 12:17 50.31206 7.97531 37229 ft 472 kts 151°
2026-04-27 12:18 50.25709 8.03118 37218 ft 472 kts 151°
2026-04-27 12:18 50.20206 8.08696 37207 ft 472 kts 151°
2026-04-27 12:19 50.14697 8.14253 37190 ft 472 kts 152°
2026-04-27 12:19 50.08893 8.18799 37157 ft 467 kts 160°
2026-04-27 12:20 50.03016 8.23049 37163 ft 467 kts 160°
2026-04-27 12:20 49.97130 8.27287 37165 ft 468 kts 160°
2026-04-27 12:21 49.91254 8.31500 37226 ft 468 kts 160°
2026-04-27 12:21 49.85328 8.35750 37213 ft 468 kts 160°
2026-04-27 12:22 49.79426 8.39972 37220 ft 468 kts 160°
2026-04-27 12:22 49.73524 8.44175 37220 ft 468 kts 160°
2026-04-27 12:23 49.67618 8.48382 37220 ft 468 kts 160°
2026-04-27 12:23 49.61713 8.52567 37213 ft 468 kts 160°
2026-04-27 12:24 49.55805 8.56753 37221 ft 468 kts 160°
2026-04-27 12:24 49.49889 8.60926 37226 ft 468 kts 160°
2026-04-27 12:25 49.43981 8.65079 37230 ft 468 kts 160°
2026-04-27 12:25 49.38064 8.69227 37217 ft 468 kts 160°
2026-04-27 12:26 49.32143 8.73362 37220 ft 468 kts 160°
2026-04-27 12:26 49.26229 8.77490 37222 ft 468 kts 160°
2026-04-27 12:27 49.20318 8.81619 37217 ft 468 kts 160°
2026-04-27 12:27 49.14411 8.85721 37204 ft 468 kts 160°
2026-04-27 12:28 49.08492 8.89817 37200 ft 468 kts 160°
2026-04-27 12:28 49.02566 8.93913 37203 ft 469 kts 160°
2026-04-27 12:29 48.96631 8.97996 37200 ft 469 kts 160°
2026-04-27 12:29 48.90696 9.02064 37176 ft 469 kts 160°
2026-04-27 12:30 48.84762 9.06126 37172 ft 469 kts 160°
2026-04-27 12:30 48.78832 9.10179 37169 ft 469 kts 160°
2026-04-27 12:31 48.72894 9.14231 37171 ft 469 kts 160°
2026-04-27 12:31 48.66952 9.18271 37175 ft 469 kts 159°
2026-04-27 12:32 48.61004 9.22310 37168 ft 470 kts 159°
2026-04-27 12:32 48.55050 9.26339 37180 ft 470 kts 159°
2026-04-27 12:33 48.49091 9.30363 37198 ft 470 kts 160°
2026-04-27 12:33 48.43129 9.34370 37196 ft 470 kts 160°
2026-04-27 12:34 48.37161 9.38374 37187 ft 470 kts 160°
2026-04-27 12:34 48.31192 9.42370 37192 ft 470 kts 160°
2026-04-27 12:35 48.25322 9.46692 37191 ft 474 kts 149°
2026-04-27 12:35 48.20123 9.52785 37186 ft 477 kts 142°
2026-04-27 12:36 48.15010 9.59081 37187 ft 477 kts 143°
2026-04-27 12:36 48.09890 9.65365 37195 ft 477 kts 143°
2026-04-27 12:37 48.04761 9.71646 37187 ft 477 kts 143°
2026-04-27 12:37 47.99631 9.77916 37176 ft 477 kts 143°
2026-04-27 12:38 47.94492 9.84159 37184 ft 478 kts 142°
2026-04-27 12:38 47.89344 9.90396 37189 ft 478 kts 142°
2026-04-27 12:39 47.84193 9.96623 37185 ft 478 kts 142°
2026-04-27 12:39 47.79041 10.02858 37182 ft 478 kts 142°
2026-04-27 12:40 47.73884 10.09079 37180 ft 478 kts 142°
2026-04-27 12:40 47.68717 10.15271 37193 ft 478 kts 142°
2026-04-27 12:41 47.63548 10.21461 37188 ft 479 kts 142°
2026-04-27 12:41 47.58377 10.27645 37187 ft 479 kts 142°
2026-04-27 12:42 47.53007 10.33421 37174 ft 477 kts 148°
2026-04-27 12:42 47.47465 10.38796 37178 ft 477 kts 148°
2026-04-27 12:43 47.41925 10.44175 37185 ft 477 kts 148°
2026-04-27 12:43 47.36376 10.49541 37190 ft 478 kts 148°
2026-04-27 12:44 47.30830 10.54897 37168 ft 478 kts 148°
2026-04-27 12:44 47.25309 10.60309 37175 ft 478 kts 146°
2026-04-27 12:45 47.19917 10.66007 37175 ft 478 kts 144°
2026-04-27 12:45 47.14563 10.71765 37173 ft 478 kts 144°
2026-04-27 12:46 47.09175 10.77447 37172 ft 478 kts 145°
2026-04-27 12:46 47.03759 10.83064 37167 ft 477 kts 145°
2026-04-27 12:47 46.98351 10.88670 37170 ft 477 kts 145°
2026-04-27 12:47 46.92953 10.94269 37165 ft 476 kts 145°
2026-04-27 12:48 46.87556 10.99848 37156 ft 476 kts 145°
2026-04-27 12:48 46.82185 11.05461 37146 ft 476 kts 141°
2026-04-27 12:49 46.77521 11.12233 37152 ft 475 kts 133°
2026-04-27 12:49 46.73020 11.19256 37133 ft 475 kts 133°
2026-04-27 12:50 46.68513 11.26253 37093 ft 475 kts 133°
2026-04-27 12:50 46.64006 11.33244 37081 ft 474 kts 133°
2026-04-27 12:51 46.59489 11.40223 37079 ft 475 kts 133°
2026-04-27 12:51 46.54966 11.47178 37080 ft 474 kts 133°
2026-04-27 12:52 46.50446 11.54125 37084 ft 474 kts 133°
2026-04-27 12:52 46.45926 11.61051 37091 ft 473 kts 133°
2026-04-27 12:53 46.39139 11.71409 37120 ft 473 kts 133°
2026-04-27 12:53 46.34558 11.78227 37120 ft 473 kts 134°
2026-04-27 12:54 46.29911 11.84919 37129 ft 473 kts 135°
2026-04-27 12:54 46.25256 11.91604 37130 ft 472 kts 134°
2026-04-27 12:55 46.20637 11.98306 37132 ft 472 kts 134°
2026-04-27 12:55 46.16018 12.05000 37139 ft 471 kts 134°
2026-04-27 12:56 46.11398 12.11675 37137 ft 471 kts 134°
2026-04-27 12:56 46.06768 12.18340 37142 ft 471 kts 134°
2026-04-27 12:57 46.02139 12.24981 37150 ft 471 kts 135°
2026-04-27 12:57 45.97504 12.31601 37150 ft 471 kts 135°
2026-04-27 12:58 45.92866 12.38210 37157 ft 471 kts 135°
2026-04-27 12:58 45.88221 12.44816 37147 ft 471 kts 135°
2026-04-27 12:59 45.83577 12.51415 37147 ft 471 kts 135°
2026-04-27 12:59 45.78927 12.58001 37147 ft 471 kts 135°
2026-04-27 13:00 45.74271 12.64569 37142 ft 471 kts 135°
2026-04-27 13:00 45.69614 12.71134 37147 ft 471 kts 135°
2026-04-27 13:01 45.64951 12.77683 37134 ft 471 kts 135°
2026-04-27 13:01 45.60284 12.84225 37140 ft 471 kts 135°
2026-04-27 13:02 45.55622 12.90762 37142 ft 471 kts 135°
2026-04-27 13:02 45.50956 12.97283 37152 ft 471 kts 135°
2026-04-27 13:03 45.46278 13.03786 37150 ft 471 kts 135°
2026-04-27 13:03 45.41594 13.10276 37149 ft 471 kts 135°
2026-04-27 13:04 45.36912 13.16756 37142 ft 471 kts 135°
2026-04-27 13:04 45.32229 13.23228 37140 ft 470 kts 135°
2026-04-27 13:05 45.27696 13.29906 37146 ft 470 kts 131°
2026-04-27 13:05 45.23448 13.36933 37141 ft 470 kts 129°
2026-04-27 13:06 45.19222 13.43995 37143 ft 470 kts 130°
2026-04-27 13:06 45.14919 13.50964 37139 ft 470 kts 131°
2026-04-27 13:07 45.10583 13.57871 37142 ft 470 kts 131°
2026-04-27 13:07 45.06245 13.64764 37138 ft 470 kts 131°
2026-04-27 13:08 45.01917 13.71669 37136 ft 470 kts 131°
2026-04-27 13:08 44.97587 13.78565 37142 ft 470 kts 131°
2026-04-27 13:09 44.93252 13.85448 37158 ft 470 kts 131°
2026-04-27 13:09 44.88909 13.92320 37151 ft 470 kts 131°
2026-04-27 13:10 44.84514 13.99123 37149 ft 470 kts 132°
2026-04-27 13:10 44.80078 14.05860 37148 ft 470 kts 132°
2026-04-27 13:11 44.75647 14.12579 37158 ft 468 kts 132°
2026-04-27 13:11 44.71248 14.19267 37163 ft 465 kts 132°
2026-04-27 13:12 44.66882 14.25905 37161 ft 461 kts 132°
2026-04-27 13:12 44.62576 14.32420 37133 ft 452 kts 132°
2026-04-27 13:13 44.58295 14.38866 37123 ft 453 kts 132°
2026-04-27 13:13 44.54008 14.45309 37130 ft 453 kts 132°
2026-04-27 13:14 44.49379 14.51268 36740 ft 453 kts 139°
2026-04-27 13:14 44.46986 14.54123 36041 ft 454 kts 139°
2026-04-27 13:14 44.44581 14.56985 35346 ft 455 kts 139°
2026-04-27 13:15 44.42175 14.59844 34669 ft 455 kts 139°
2026-04-27 13:15 44.39763 14.62710 33979 ft 456 kts 138°
2026-04-27 13:15 44.37346 14.65580 33186 ft 457 kts 138°
2026-04-27 13:15 44.34923 14.68454 32376 ft 459 kts 138°
2026-04-27 13:16 44.32493 14.71338 31560 ft 460 kts 138°
2026-04-27 13:16 44.30052 14.74232 30745 ft 462 kts 138°
2026-04-27 13:16 44.27602 14.77134 29865 ft 464 kts 138°
2026-04-27 13:16 44.25142 14.80044 28875 ft 466 kts 139°
2026-04-27 13:17 44.22669 14.82960 27878 ft 468 kts 139°
2026-04-27 13:17 44.20181 14.85889 26862 ft 470 kts 139°
2026-04-27 13:17 44.17681 14.88830 25941 ft 471 kts 139°
2026-04-27 13:17 44.15198 14.91748 25304 ft 465 kts 139°
2026-04-27 13:18 44.12763 14.94606 24938 ft 454 kts 140°
2026-04-27 13:18 44.10373 14.97411 24414 ft 448 kts 140°
2026-04-27 13:18 44.08008 15.00190 23828 ft 444 kts 140°
2026-04-27 13:18 44.05664 15.02941 23172 ft 441 kts 140°
2026-04-27 13:19 44.03336 15.05671 22554 ft 437 kts 140°
2026-04-27 13:19 44.01030 15.08368 21992 ft 432 kts 140°
2026-04-27 13:19 43.98743 15.11037 21550 ft 426 kts 140°
2026-04-27 13:19 43.96507 15.13637 21241 ft 416 kts 140°
2026-04-27 13:20 43.94303 15.16196 20802 ft 412 kts 140°
2026-04-27 13:20 43.92129 15.18747 20335 ft 408 kts 139°
2026-04-27 13:20 43.90006 15.21317 19878 ft 405 kts 139°
2026-04-27 13:20 43.87913 15.23900 19418 ft 401 kts 139°
2026-04-27 13:21 43.85846 15.26463 18971 ft 398 kts 139°
2026-04-27 13:21 43.83792 15.29005 18531 ft 395 kts 139°
2026-04-27 13:21 43.81751 15.31519 18053 ft 392 kts 139°
2026-04-27 13:21 43.79719 15.34003 17644 ft 387 kts 139°
2026-04-27 13:22 43.77728 15.36425 17411 ft 377 kts 139°
2026-04-27 13:22 43.75769 15.38800 17005 ft 373 kts 139°
2026-04-27 13:22 43.73833 15.41147 16571 ft 370 kts 139°
2026-04-27 13:22 43.71909 15.43481 16148 ft 367 kts 139°
2026-04-27 13:23 43.70004 15.45791 15732 ft 364 kts 139°
2026-04-27 13:23 43.68110 15.48085 15315 ft 362 kts 139°
2026-04-27 13:23 43.66230 15.50362 14905 ft 359 kts 139°
2026-04-27 13:23 43.64361 15.52622 14494 ft 356 kts 139°
2026-04-27 13:24 43.62508 15.54863 14102 ft 354 kts 139°
2026-04-27 13:24 43.60665 15.57087 13677 ft 351 kts 140°
2026-04-27 13:24 43.58837 15.59289 13261 ft 348 kts 140°
2026-04-27 13:24 43.57047 15.61444 13048 ft 338 kts 140°
2026-04-27 13:25 43.55299 15.63548 12785 ft 331 kts 140°
2026-04-27 13:25 43.53589 15.65604 12530 ft 324 kts 140°
2026-04-27 13:25 43.51912 15.67617 12274 ft 317 kts 139°
2026-04-27 13:25 43.50271 15.69587 12020 ft 311 kts 139°
2026-04-27 13:26 43.48662 15.71520 11768 ft 305 kts 139°
2026-04-27 13:26 43.47084 15.73414 11521 ft 299 kts 140°
2026-04-27 13:26 43.45533 15.75278 11237 ft 295 kts 140°
2026-04-27 13:26 43.43998 15.77116 10923 ft 292 kts 140°
2026-04-27 13:27 43.42476 15.78934 10602 ft 289 kts 140°
2026-04-27 13:27 43.40972 15.80731 10286 ft 286 kts 140°
2026-04-27 13:27 43.39479 15.82513 9964 ft 283 kts 140°
2026-04-27 13:27 43.38000 15.84277 9600 ft 281 kts 140°
2026-04-27 13:28 43.36529 15.86028 9214 ft 279 kts 140°
2026-04-27 13:28 43.35067 15.87768 8822 ft 278 kts 140°
2026-04-27 13:28 43.33613 15.89500 8430 ft 277 kts 140°
2026-04-27 13:28 43.32182 15.91246 8037 ft 275 kts 135°
2026-04-27 13:29 43.31008 15.93302 7654 ft 275 kts 120°
2026-04-27 13:29 43.30414 15.95775 7262 ft 276 kts 97°
2026-04-27 13:29 43.30562 15.98383 6862 ft 276 kts 79°
2026-04-27 13:29 43.30974 16.00959 6441 ft 276 kts 78°
2026-04-27 13:30 43.31393 16.03514 6041 ft 274 kts 78°
2026-04-27 13:30 43.31811 16.06052 5676 ft 271 kts 78°
2026-04-27 13:30 43.32213 16.08509 5540 ft 258 kts 78°
2026-04-27 13:30 43.32597 16.10878 5286 ft 251 kts 79°
2026-04-27 13:31 43.32969 16.13189 5045 ft 245 kts 79°
2026-04-27 13:31 43.33330 16.15442 4798 ft 239 kts 79°
2026-04-27 13:31 43.33684 16.17641 4544 ft 234 kts 79°
2026-04-27 13:31 43.34088 16.19770 4290 ft 229 kts 70°
2026-04-27 13:32 43.34801 16.21701 4077 ft 226 kts 57°
2026-04-27 13:32 43.35814 16.23352 4005 ft 227 kts 44°
2026-04-27 13:32 43.36998 16.24792 3818 ft 227 kts 43°
2026-04-27 13:32 43.38170 16.26216 3577 ft 225 kts 43°
2026-04-27 13:33 43.39315 16.27608 3435 ft 215 kts 43°
2026-04-27 13:33 43.40420 16.28947 3314 ft 209 kts 42°
2026-04-27 13:33 43.41485 16.30240 3197 ft 199 kts 43°
2026-04-27 13:33 43.42486 16.31455 3118 ft 186 kts 43°
2026-04-27 13:34 43.43420 16.32589 3029 ft 172 kts 43°
2026-04-27 13:34 43.44271 16.33621 2985 ft 159 kts 45°
2026-04-27 13:34 43.45082 16.34609 3022 ft 154 kts 44°
2026-04-27 13:34 43.45897 16.35607 3023 ft 160 kts 44°
2026-04-27 13:35 43.46701 16.36583 2969 ft 150 kts 44°
2026-04-27 13:35 43.47507 16.37509 2725 ft 153 kts 40°
2026-04-27 13:35 43.48376 16.38364 2476 ft 155 kts 34°
2026-04-27 13:35 43.49320 16.39100 2249 ft 155 kts 27°
2026-04-27 13:36 43.50307 16.39679 1983 ft 156 kts 20°
2026-04-27 13:36 43.51357 16.40042 1773 ft 155 kts
2026-04-27 13:36 43.52418 16.40120 1520 ft 154 kts 353°
2026-04-27 13:36 43.53453 16.39808 1347 ft 151 kts 333°
2026-04-27 13:37 43.54307 16.39045 1198 ft 143 kts 315°
2026-04-27 13:37 43.54970 16.38095 999 ft 134 kts 302°
2026-04-27 13:37 43.55522 16.37074 845 ft 133 kts 302°
2026-04-27 13:37 43.55918 16.35922 730 ft 134 kts 279°
2026-04-27 13:38 43.55908 16.34644 698 ft 134 kts 262°
2026-04-27 13:38 43.55781 16.33399 519 ft 130 kts 249°
2026-04-27 13:38 43.55302 16.32332 325 ft 134 kts 232°
2026-04-27 13:38 43.54753 16.31336 122 ft 128 kts 232°
2026-04-27 13:39 43.54248 16.30444 56 ft 94 kts 231°
2026-04-27 13:39 43.54000 16.30001 67 ft 42 kts 232°
2026-04-27 13:39 43.53844 16.29717 72 ft 34 kts 234°
2026-04-27 13:39 43.53722 16.29499 79 ft 9 kts 204°
2026-04-27 13:40 43.53696 16.29556 75 ft 11 kts 104°
2026-04-27 13:40 43.53686 16.29599 64 ft 0 kts 109°
2026-04-27 13:40 43.53682 16.29624 65 ft 7 kts 102°
2026-04-27 13:40 43.53693 16.29678 62 ft 5 kts 56°
2026-04-27 13:41 43.53712 16.29716 68 ft 4 kts 69°
2026-04-27 13:41 43.53712 16.29749 68 ft 3 kts 100°
2026-04-27 13:41 43.53706 16.29776 67 ft 5 kts 108°
2026-04-27 13:41 43.53694 16.29813 64 ft 4 kts 113°
2026-04-27 13:42 43.53693 16.29815 64 ft 0 kts 113°